DW5679 Weather Reports


Display with metric or nautical units.
time (UTC)temp
F
wind
direction
speed
MPH
gust
MPH
rain 1hr
in
rain 24hr
in
rain mn
in
humidity
%
barometer
mb
20260506071528 59 89 1.0 7.0 0.60 0.95 0.87 95 1008.1
20260506071506 59 67 0.0 7.0 0.53 0.95 0.87 95 1008.3
20260506061551 69 335 3.0 10.0 0.32 0.40 0.32 98 1007.7
20260506061530 69 10 2.0 5.0 0.27 0.35 0.27 98 1007.5
20260506044543 68 29 0.0 0.0 0.00 0.08 0.08 98 1006.8
20260506044521 68 59 0.0 0.0 0.00 0.08 0.08 97 1006.4
20260506043040 68 29 0.0 0.0 0.00 0.08 0.08 98 1006.6
20260506043018 68 59 0.0 0.0 0.00 0.08 0.08 97 1006.3
20260506041555 69 29 0.0 0.0 0.00 0.08 0.08 98 1006.8
20260506041516 69 59 0.0 0.0 0.00 0.08 0.08 97 1006.5
20260506040039 69 29 0.0 0.0 0.00 0.08 0.08 98 1007.1
20260506040017 69 59 0.0 0.0 0.00 0.08 0.08 97 1006.9
20260506034549 68 29 0.0 0.0 0.00 0.08 0.08 97 1006.8
20260506034526 68 59 0.0 0.0 0.00 0.08 0.08 97 1006.5
20260506033039 69 29 0.0 0.0 0.00 0.08 0.08 97 1006.3
20260506033025 69 59 0.0 0.0 0.00 0.08 0.08 97 1006.1
20260506031536 69 29 0.0 0.0 0.00 0.08 0.08 97 1006.1
20260506031523 69 59 0.0 0.0 0.00 0.08 0.08 97 1006.0
20260506030038 69 29 0.0 0.0 0.00 0.08 0.08 97 1006.8
20260506030020 69 59 0.0 0.0 0.00 0.08 0.08 97 1006.5
20260506024536 69 29 0.0 0.0 0.00 0.08 0.08 97 1006.2
20260506024517 69 59 0.0 0.0 0.00 0.08 0.08 97 1006.0
20260506023035 69 29 0.0 0.0 0.00 0.08 0.08 97 1006.7
20260506023013 69 59 0.0 0.0 0.00 0.08 0.08 97 1006.4
20260506021534 69 29 0.0 0.0 0.00 0.08 0.08 97 1006.0
20260506021529 70 60 0.0 0.0 0.00 0.08 0.08 96 1005.9
20260506020034 70 29 0.0 0.0 0.00 0.08 0.08 97 1006.2
20260506020011 70 59 0.0 0.0 0.00 0.08 0.08 96 1005.9
20260506014534 70 29 0.0 0.0 0.00 0.08 0.08 96 1006.5
20260506014526 70 59 0.0 0.0 0.00 0.08 0.08 96 1006.3
20260506013047 70 29 0.0 0.0 0.00 0.08 0.08 96 1006.1
20260506013023 71 59 0.0 0.0 0.00 0.08 0.08 96 1005.7
20260506011531 71 29 0.0 0.0 0.00 0.08 0.08 96 1006.3
20260506011523 71 59 0.0 0.0 0.00 0.08 0.08 96 1005.8
20260506010033 71 29 0.0 0.0 0.00 0.08 0.08 96 1005.7
20260506010022 71 59 0.0 0.0 0.00 0.08 0.08 95 1005.4
20260506004528 71 29 0.0 0.0 0.00 0.08 0.08 95 1005.7
20260506004523 71 59 0.0 0.0 0.00 0.08 0.08 95 1005.4
20260506003027 71 29 0.0 0.0 0.00 0.08 0.08 95 1005.7
20260506003008 71 59 0.0 0.0 0.00 0.08 0.08 94 1005.3
20260506001611 72 29 0.0 0.0 0.00 0.08 0.08 94 1005.2
20260506001528 72 59 0.0 0.0 0.00 0.08 0.08 94 1004.8
20260506000041 72 59 0.0 0.0 0.00 0.08 0.08 93 1005.1
20260506000030 72 29 0.0 0.0 0.00 0.08 0.08 93 1005.5
20260505234604 73 29 0.0 0.0 0.00 0.08 0.08 93 1005.6
20260505234522 73 59 0.0 0.0 0.00 0.08 0.08 92 1005.4
20260505233030 73 29 0.0 0.0 0.00 0.08 0.08 92 1005.0
20260505233018 73 59 0.0 0.0 0.00 0.08 0.08 91 1004.8
20260505231553 73 29 0.0 0.0 0.00 0.08 0.08 92 1005.2
20260505231520 73 59 0.0 0.0 0.00 0.08 0.08 91 1004.9
20260505230029 73 59 0.0 0.0 0.00 0.08 0.08 91 1005.4
20260505230006 73 29 0.0 0.0 0.00 0.08 0.08 91 1005.5
20260505224527 73 64 0.0 0.0 0.00 0.08 0.08 91 1004.9
20260505224520 73 34 0.0 0.0 0.00 0.08 0.08 91 1005.1
20260505223026 73 65 0.0 0.0 0.00 0.08 0.08 92 1005.2
20260505223015 73 34 0.0 0.0 0.00 0.08 0.08 92 1005.3
20260505221524 72 65 0.0 0.0 0.00 0.08 0.08 92 1005.3
20260505221512 72 35 0.0 0.0 0.00 0.08 0.08 93 1005.3
20260505220022 72 65 0.0 0.0 0.00 0.08 0.08 94 1005.5
20260505214520 71 65 0.0 0.0 0.00 0.08 0.08 94 1005.3
20260505214505 71 35 0.0 0.0 0.00 0.08 0.08 94 1005.4
20260505213013 70 65 0.0 0.0 0.00 0.08 0.08 94 1005.5
20260505213002 70 35 0.0 0.0 0.00 0.08 0.08 95 1005.7
20260505211536 70 82 0.0 0.0 0.00 0.08 0.08 94 1005.5
20260505211502 70 52 0.0 0.0 0.00 0.08 0.08 95 1005.6
20260505210107 70 51 0.0 0.0 0.00 0.08 0.08 95 1006.0
20260505210028 70 81 0.0 0.0 0.00 0.08 0.08 94 1005.9
20260505204701 70 52 0.0 0.0 0.00 0.08 0.08 96 1006.2
20260505204524 70 82 0.0 0.0 0.00 0.08 0.08 95 1006.0
20260505203107 69 52 0.0 0.0 0.00 0.08 0.08 95 1006.2
20260505203022 69 81 0.0 0.0 0.00 0.08 0.08 95 1006.1
20260505201556 69 52 0.0 0.0 0.00 0.08 0.08 95 1006.5
20260505201520 69 82 0.0 0.0 0.00 0.08 0.08 95 1006.4
20260505200108 69 52 0.0 0.0 0.00 0.08 0.08 97 1006.2
20260505200019 69 82 0.0 0.0 0.00 0.08 0.08 96 1006.0
20260505194555 68 51 0.0 0.0 0.00 0.08 0.08 96 1006.1
20260505194512 68 82 0.0 0.0 0.00 0.08 0.08 96 1005.9
20260505193011 67 85 0.0 0.0 0.01 0.08 0.08 96 1006.1
20260505191521 67 46 0.0 0.0 0.01 0.08 0.08 96 1006.4
20260505191512 67 76 0.0 0.0 0.01 0.08 0.08 96 1006.3
20260505190045 67 54 0.0 0.0 0.01 0.08 0.08 96 1006.6
20260505190006 67 84 0.0 0.0 0.01 0.08 0.08 96 1006.4
20260505184527 67 28 0.0 0.0 0.01 0.08 0.08 96 1006.4
20260505184523 67 58 0.0 0.0 0.01 0.08 0.08 96 1006.4
20260505183033 67 28 0.0 0.0 0.01 0.07 0.07 96 1006.5
20260505183022 67 58 0.0 0.0 0.01 0.07 0.07 96 1006.3
20260505181525 67 41 0.0 0.0 0.01 0.07 0.07 96 1006.6
20260505181516 67 71 0.0 0.0 0.01 0.07 0.07 95 1006.6
20260505180024 67 41 0.0 0.0 0.01 0.07 0.07 96 1006.9
20260505180011 67 71 0.0 0.0 0.01 0.07 0.07 95 1006.8
20260505174525 67 41 0.0 0.0 0.02 0.07 0.07 95 1007.0
20260505174508 67 71 0.0 0.0 0.02 0.07 0.07 95 1006.9
20260505173022 67 41 0.0 0.0 0.01 0.06 0.06 96 1007.0
20260505173009 67 71 0.0 0.0 0.01 0.06 0.06 95 1007.0
20260505171533 67 71 0.0 0.0 0.02 0.06 0.06 95 1007.1
20260505171522 67 41 0.0 0.0 0.02 0.06 0.06 96 1007.2
20260505170029 66 41 0.0 0.0 0.02 0.06 0.06 96 1007.2
20260505170023 66 71 0.0 1.0 0.02 0.06 0.06 95 1007.1
20260505164521 66 42 0.0 1.0 0.01 0.05 0.05 96 1007.3
20260505163020 66 40 0.0 1.0 0.01 0.05 0.05 96 1007.5
20260505163015 66 70 0.0 1.0 0.01 0.05 0.05 95 1007.4
20260505161535 66 51 0.0 0.0 0.00 0.04 0.04 96 1007.3
20260505161514 66 81 0.0 0.0 0.00 0.04 0.04 95 1007.3
20260505153035 65 77 0.0 1.0 0.01 0.04 0.04 95 1007.4
20260505153018 65 47 0.0 1.0 0.01 0.04 0.04 96 1007.6
20260505151523 65 45 0.0 1.0 0.01 0.04 0.04 95 1007.6
20260505151517 65 14 0.0 1.0 0.01 0.04 0.04 96 1007.8
20260505140121 64 38 0.0 0.0 0.02 0.02 0.02 96 1007.9
20260505124541 64 37 0.0 0.0 0.00 0.00 0.00 94 1007.3
20260505124507 64 67 0.0 0.0 0.00 0.00 0.00 93 1007.2
20260505123035 64 37 0.0 0.0 0.00 0.00 0.00 93 1007.3
20260505123004 64 67 0.0 0.0 0.00 0.00 0.00 93 1007.3
20260505121538 64 37 0.0 0.0 0.00 0.00 0.00 92 1007.0
20260505121506 64 67 0.0 0.0 0.00 0.00 0.00 91 1007.0
20260505120033 64 37 0.0 0.0 0.00 0.00 0.00 90 1007.0
20260505120004 64 67 0.0 0.0 0.00 0.00 0.00 90 1006.9
20260505114533 65 46 0.0 1.0 0.00 0.00 0.00 89 1006.7
20260505114504 65 78 0.0 1.0 0.00 0.00 0.00 89 1006.5
20260505113033 65 60 0.0 1.0 0.00 0.00 0.00 87 1006.4
20260505113004 65 92 0.0 1.0 0.00 0.00 0.00 87 1006.2
20260505111530 66 51 0.0 2.0 0.00 0.00 0.00 85 1006.3
20260505111505 66 81 0.0 2.0 0.00 0.00 0.00 85 1006.1
20260505101531 66 138 0.0 1.0 0.00 0.00 0.00 82 1006.0
20260505101507 66 85 0.0 1.0 0.00 0.00 0.00 82 1005.8
20260505100056 66 89 0.0 1.0 0.00 0.00 0.00 82 1006.0
20260505100008 66 164 0.0 1.0 0.00 0.00 0.00 81 1005.9
20260505094623 67 12 0.0 1.0 0.00 0.00 0.00 81 1006.3
20260505094510 67 43 0.0 1.0 0.00 0.00 0.00 81 1006.0
20260505093058 67 64 0.0 3.0 0.00 0.00 0.00 80 1006.0
20260505093012 67 100 0.0 3.0 0.00 0.00 0.00 79 1005.7
20260505091604 67 55 0.0 0.0 0.00 0.00 0.00 79 1006.1
20260505091508 67 88 0.0 0.0 0.00 0.00 0.00 79 1005.9
20260505090058 67 20 0.0 1.0 0.00 0.00 0.00 80 1006.0
20260505090010 67 81 0.0 2.0 0.00 0.00 0.00 79 1005.8
20260505084555 67 23 0.0 1.0 0.00 0.00 0.00 79 1006.2
20260505084508 67 54 0.0 3.0 0.00 0.00 0.00 78 1005.9
20260505083058 67 129 0.0 2.0 0.00 0.00 0.00 78 1006.3
20260505083012 67 77 0.0 2.0 0.00 0.00 0.00 77 1006.1
20260505081556 67 72 0.0 0.0 0.00 0.00 0.00 77 1006.8
20260505081518 67 102 0.0 1.0 0.00 0.00 0.00 76 1006.6
20260505080050 67 51 0.0 1.0 0.00 0.00 0.00 76 1007.0
20260505080014 67 85 0.0 1.0 0.00 0.00 0.00 75 1006.8
20260505074545 67 56 0.0 1.0 0.00 0.00 0.00 76 1007.2
20260505074513 67 97 0.0 1.0 0.00 0.00 0.00 75 1007.1
20260505073044 67 40 0.0 1.0 0.00 0.00 0.00 75 1007.1
20260505073015 67 69 0.0 1.0 0.00 0.00 0.00 74 1007.0